This demonstration page uses our WeatherBlox Daily Observations layout. Learn more.

Left ArrowRight Arrow

Hourly Observations for November 2, 2021

Temp ( °F °C ) Dew Point ( °F °C ) Humidity (%) Winds ( mph kmh ) Pressure ( in mb ) Visibility ( mi km ) Precip ( " mm )
12:56 am 00:56 Cloudy 34 1.1 33 0.6 97 97 WNW 5 7 30.49 1033 10 16 0.00 0.00
1:56 am 01:56 Cloudy 34 1.1 33 0.6 97 97 W 3 6 30.51 1033 10 16 0.00 0.00
2:56 am 02:56 Cloudy 34 1.1 33 0.6 97 97 Calm 30.50 1033 10 16 0.00 0.00
3:56 am 03:56 Cloudy 34 1.1 33 0.6 97 97 Calm 30.50 1033 10 16 0.00 0.00
4:56 am 04:56 Cloudy 34 1.1 33 0.6 97 97 Calm 30.49 1033 10 16 0.00 0.00
5:46 am 05:46 Cloudy 34 1 32 0 93 93 WSW 3 6 30.51 1033 10 16 0.00 0.00
5:56 am 05:56 Cloudy 33 0.6 32 0 96 96 Calm 30.49 1032 10 16 0.00 0.00
6:56 am 06:56 Cloudy 33 0.6 32 0 96 96 NNW 3 6 30.48 1032 7 11 0.00 0.00
7:09 am 07:09 Cloudy with Mist and Fog 34 1 32 0 93 93 NW 5 7 30.51 1033 5 8 0.00 0.00
7:22 am 07:22 Cloudy with Mist and Fog 34 1 32 0 93 93 NW 5 7 30.51 1033 3 4 0.00 0.00
7:32 am 07:32 Cloudy with Mist and Fog 32 0 32 0 100 100 NNW 3 6 30.52 1034 1 2 0.00 0.00
7:40 am 07:40 Cloudy with Mist and Fog 32 0 30 -1 93 93 N 3 6 30.51 1033 1 1 0.00 0.00
7:48 am 07:48 Cloudy with Mist and Fog 32 0 30 -1 93 93 Calm 30.51 1033 1 2 0.00 0.00
7:56 am 07:56 Cloudy with Mist and Fog 32 0 31 -0.6 96 96 SW 3 6 30.48 1032 3 5 0.00 0.00
8:07 am 08:07 Cloudy with Mist and Fog 32 0 30 -1 93 93 WSW 3 6 30.52 1034 2 3 0.00 0.00
8:48 am 08:48 Cloudy with Mist and Fog 32 0 30 -1 93 93 SSW 5 7 30.52 1034 1 1 0.00 0.00
8:54 am 08:54 Cloudy with Fog 34 1 32 0 93 93 SSW 3 6 30.52 1034 0 0 0.00 0.00
8:56 am 08:56 Cloudy with Fog 33 0.6 32 0 96 96 SSW 3 6 30.49 1033 0 0 0.00 0.00
9:06 am 09:06 Cloudy with Fog 34 1 34 1 100 100 SSW 5 7 30.52 1034 1 1 0.00 0.00
9:35 am 09:35 Cloudy with Mist and Fog 34 1 34 1 100 100 S 5 7 30.52 1034 1 2 0.00 0.00
9:40 am 09:40 Cloudy with Mist and Fog 36 2 34 1 93 93 S 3 6 30.50 1033 3 5 0.00 0.00
9:56 am 09:56 Cloudy with Mist and Fog 35 1.7 35 1.7 100 100 S 5 7 30.48 1032 5 8 0.00 0.00
10:08 am 10:08 Cloudy with Mist and Fog 36 2 36 2 100 100 S 5 7 30.50 1033 6 10 0.00 0.00
10:56 am 10:56 Cloudy 37 2.8 37 2.8 100 100 SSE 3 6 30.47 1032 9 14 0.00 0.00
11:10 am 11:10 Cloudy 37 3 37 3 100 100 SSW 3 6 30.50 1033 9 14 0.00 0.00
11:56 am 11:56 Cloudy 39 3.9 38 3.3 96 96 S 8 13 30.47 1032 10 16 0.00 0.00
12:08 pm 12:08 Cloudy 39 4 37 3 93 93 S 7 11 30.48 1032 10 16 0.00 0.00
12:56 pm 12:56 Cloudy 39 3.9 36 2.2 89 89 S 8 13 30.46 1031 10 16 0.00 0.00
1:29 pm 13:29 Cloudy 39 4 36 2 87 87 SSW 5 7 30.46 1031 10 16 0.00 0.00
1:37 pm 13:37 Cloudy 41 5 37 3 87 87 S 8 13 30.44 1031 10 16 0.00 0.00
1:56 pm 13:56 Cloudy 41 5 37 2.8 86 86 SSW 7 11 30.42 1030 10 16 0.00 0.00
2:24 pm 14:24 Cloudy 41 5 36 2 81 81 SSW 8 13 30.42 1030 10 16 0.00 0.00
2:56 pm 14:56 Cloudy 41 5 36 2.2 82 82 SSW 9 15 30.40 1029 10 16 0.00 0.00
3:56 pm 15:56 Cloudy 41 5 37 2.8 86 86 SSW 9 15 30.38 1029 10 16 0.00 0.00
4:56 pm 16:56 Cloudy 41 5 37 2.8 86 86 S 8 13 30.38 1029 10 16 0.00 0.00
5:51 pm 17:51 Cloudy 41 5 37 3 87 87 S 7 11 30.38 1029 10 16 0.00 0.00
5:56 pm 17:56 Cloudy 41 5 37 2.8 86 86 S 8 13 30.38 1029 10 16 0.00 0.00
6:56 pm 18:56 Cloudy 40 4.4 37 2.8 89 89 S 6 9 30.38 1029 10 16 0.00 0.00
7:56 pm 19:56 Cloudy 40 4.4 37 2.8 89 89 S 8 13 30.38 1029 10 16 0.00 0.00
8:56 pm 20:56 Cloudy 40 4.4 37 2.8 89 89 S 9 15 30.37 1029 10 16 0.00 0.00
9:56 pm 21:56 Cloudy 40 4.4 37 2.8 89 89 S 10 17 30.37 1028 10 16 0.00 0.00
10:56 pm 22:56 Cloudy 39 3.9 37 2.8 93 93 S 8 13 30.37 1029 10 16 0.00 0.00
11:56 pm 23:56 Cloudy 39 3.9 36 2.2 89 89 SSW 10 17 30.38 1029 10 16 0.00 0.00

Powered by AerisWeather